Theta_e
319 316 318 315 304 303 299 300 303 301 303 305 310 315 315 312 313 309 320 324 325 327 332 334 338 338 337 336 336 336 337 337 336 336 335 335 336 336 335 336 337 339 340 341 341 341 341 340 342
315 315 316 311 301 297 298 302 301 305 304 305 307 310 312 310 310 314 319 318 323 325 330 331 335 335 334 333 332 333 333 333 333 333 332 331 331 331 331 332 332 333 335 335 335 335 334 334 335
313 310 309 304 300 295 297 301 303 303 304 304 303 304 306 306 311 317 322 319 322 324 327 329 332 331 331 330 329 330 329 329 328 328 328 328 328 327 328 328 328 328 329 330 330 330 330 329 330
314 311 308 299 296 299 299 300 302 301 302 303 303 302 303 306 314 317 321 323 323 322 324 327 329 328 328 327 326 326 325 325 325 324 324 324 324 324 324 324 324 324 325 325 325 324 324 323 323
311 308 298 296 297 298 299 300 302 301 303 303 302 301 302 307 312 318 319 320 320 321 323 323 328 326 325 324 323 322 322 322 321 320 321 320 321 321 321 321 320 321 321 321 321 320 319 318 318
304 304 294 292 294 297 298 301 303 303 303 301 302 302 302 307 313 317 318 318 318 318 320 321 321 324 323 321 320 319 318 318 317 316 316 317 317 317 317 317 317 317 317 317 317 316 315 314 314
301 299 294 293 292 294 297 301 302 303 302 302 304 302 301 306 314 315 315 315 315 316 316 318 317 317 319 316 316 316 315 314 312 312 311 311 311 311 311 312 313 313 313 314 313 312 311 311 311
304 300 292 293 292 292 297 298 298 301 301 302 303 302 301 307 314 313 313 312 311 311 311 312 313 313 313 313 312 311 311 310 308 307 305 305 305 306 306 306 308 309 310 310 310 309 308 306 307
301 296 292 292 292 294 296 296 297 297 298 300 300 301 302 310 311 309 308 308 307 305 305 306 307 308 309 309 307 307 306 305 304 303 301 303 303 302 303 302 304 305 305 306 306 306 305 304 303
300 295 293 294 294 294 294 295 295 296 296 297 298 300 303 309 308 307 306 305 304 303 303 303 304 305 304 302 304 304 303 304 303 303 302 302 302 301 300 300 299 300 300 301 302 303 302 302 303
296 294 293 293 295 293 293 294 295 295 295 299 298 300 302 306 307 307 306 306 304 303 302 303 303 304 304 304 304 304 304 303 303 303 302 302 302 302 301 301 301 301 300 301 301 301 301 302 302
292 292 292 293 292 292 292 294 294 294 297 296 297 300 303 305 306 306 305 304 302 301 302 303 303 303 303 304 303 303 303 303 302 302 302 303 302 302 300 300 300 300 301 301 301 301 301 301 301
292 292 292 292 292 293 293 292 292 293 297 296 296 298 301 304 306 307 306 304 302 300 302 302 303 302 302 303 302 302 302 302 301 302 302 303 302 301 300 300 300 299 300 300 299 299 299 300 300
292 292 291 292 292 292 291 292 291 293 295 295 294 297 299 301 304 305 303 303 301 302 302 302 302 302 302 302 302 301 301 300 301 302 301 301 301 300 299 299 298 299 299 299 299 298 298 299 299
292 289 291 292 292 291 291 290 290 295 293 293 293 295 298 299 301 303 304 304 303 303 303 302 302 302 301 301 301 301 301 300 300 301 300 299 299 299 298 298 298 298 298 298 298 298 298 298 298
290 291 288 290 291 291 291 290 293 294 293 294 294 294 295 298 300 301 303 304 304 304 302 303 301 301 301 300 300 300 300 300 300 300 300 298 298 298 298 298 298 298 298 297 297 297 296 297 297
290 291 287 288 290 290 290 291 293 293 294 295 296 296 295 296 297 300 302 302 303 303 303 302 302 301 300 300 300 299 299 300 300 299 300 298 297 297 297 297 297 297 297 297 296 296 295 295 296
287 287 286 287 288 289 290 291 295 296 293 294 294 294 294 295 296 298 301 302 303 303 303 303 302 302 301 300 299 299 298 299 299 299 298 297 297 296 297 297 296 296 296 295 295 294 295 295 295
287 286 286 287 287 286 287 287 291 293 291 292 292 292 292 293 294 295 297 301 302 303 302 302 301 301 300 299 298 298 298 298 297 297 297 296 295 295 295 295 295 295 294 293 293 293 293 294 295
287 285 285 287 286 285 285 285 289 289 289 290 291 293 292 293 294 294 295 298 301 301 302 301 301 300 299 300 299 300 300 299 299 298 296 296 295 295 294 294 294 293 292 292 292 292 291 293 294
284 284 282 282 285 283 283 287 287 288 289 290 291 292 293 292 292 294 295 296 300 300 301 300 300 300 299 299 297 296 296 296 296 296 296 295 294 294 294 293 293 293 292 291 291 291 291 289 292
284 283 282 281 283 282 282 282 286 286 288 290 290 291 292 293 294 294 294 296 297 300 301 301 300 299 299 298 297 296 297 296 297 297 297 295 293 293 293 293 293 293 293 292 292 292 292 291 289
282 283 281 279 280 279 280 281 286 287 287 288 288 288 289 292 292 293 294 295 296 298 300 300 300 299 298 298 298 298 297 297 297 296 295 295 294 293 292 293 292 292 292 292 292 292 292 292 290
284 281 280 280 281 280 272 276 283 285 284 286 288 288 289 290 292 293 294 295 295 296 296 297 296 296 297 297 297 296 296 296 295 295 294 295 294 293 292 292 292 292 292 292 292 292 292 291 290
281 281 280 278 279 278 268 276 284 285 285 285 285 287 289 290 291 292 292 293 294 295 295 295 294 295 295 296 296 296 296 296 295 295 295 294 292 292 292 291 291 291 291 291 292 291 291 290 289
279 280 280 272 275 277 269 276 282 284 285 286 287 288 289 290 290 291 291 292 292 293 294 294 294 293 294 294 294 295 295 295 295 294 294 292 291 291 291 291 291 291 291 291 291 290 289 289 289
280 281 277 272 263 274 277 280 283 284 283 285 286 287 287 288 289 290 291 291 291 291 292 292 293 294 294 294 294 294 294 294 293 293 293 292 291 290 290 291 290 290 290 290 290 289 289 289 290
280 279 278 278 272 272 275 273 282 280 281 281 283 283 284 286 288 289 289 290 291 291 291 292 292 291 292 293 293 293 293 293 293 292 291 291 290 290 289 289 289 290 290 290 289 288 289 288 289
278 278 276 278 276 275 274 279 286 285 282 279 280 282 282 283 286 287 288 289 290 291 291 291 291 291 291 292 293 293 292 292 291 290 291 290 290 289 289 289 289 289 289 289 288 288 287 286 287
279 280 280 277 273 273 273 277 285 281 279 279 280 281 283 285 285 286 287 288 288 289 289 290 291 291 291 291 291 291 291 291 290 289 290 290 289 289 289 288 288 288 288 288 287 287 287 286 286
Wind_Speed
6 6 3 2 5 2 5 3 2 3 3 2 1 2 1 7 2 2 4 6 5 6 9 11 14 17 18 17 15 15 15 16 17 16 16 16 16 16 15 15 15 15 14 14 14 14 14 13 14
6 2 2 2 7 10 8 5 8 3 4 4 3 1 3 3 4 7 9 4 7 7 7 11 11 16 18 17 14 15 16 16 17 17 17 16 15 15 16 15 14 14 14 14 14 14 14 13 13
3 3 3 3 7 13 6 7 3 2 4 2 3 2 2 4 3 10 9 9 9 8 8 10 11 16 18 17 15 14 14 16 17 17 16 16 16 16 16 15 15 14 14 14 14 14 14 13 14
2 4 3 7 11 7 7 3 1 5 4 1 1 3 3 4 6 3 11 12 11 11 9 8 12 16 17 16 15 15 16 16 17 17 16 16 16 16 16 15 15 14 14 14 14 14 13 13 13
1 2 5 7 12 3 4 3 3 5 3 4 3 3 2 3 3 12 12 10 11 11 11 11 12 15 16 16 15 15 16 17 17 16 16 16 16 16 15 15 15 14 14 13 13 13 13 13 13
3 2 5 12 8 4 3 2 4 4 3 5 5 5 3 2 10 12 11 10 10 11 10 11 12 13 15 15 15 15 16 17 16 16 16 16 16 16 15 15 15 14 14 14 13 13 13 13 13
3 4 3 1 3 5 2 2 5 6 4 3 1 4 4 8 11 11 10 9 10 10 10 10 11 12 13 13 15 15 16 16 16 16 16 16 16 16 15 16 15 14 14 14 13 13 13 13 13
1 3 4 4 4 2 3 3 1 4 4 2 2 3 4 12 15 11 10 9 8 7 8 8 9 9 9 10 13 15 15 15 15 15 14 14 14 14 14 12 14 13 13 13 13 13 13 11 11
1 4 4 3 5 2 2 5 2 1 2 3 1 2 4 16 16 13 10 8 8 7 7 7 7 8 8 9 9 12 14 13 11 11 10 8 7 8 9 12 12 12 12 12 13 13 12 11 8
3 3 3 3 2 1 0 2 0 3 5 5 4 4 7 16 16 16 14 12 11 10 9 7 7 7 7 6 7 7 6 6 6 6 7 5 6 7 6 7 8 9 9 9 10 11 10 10 7
2 2 2 3 2 3 2 2 2 3 6 4 5 8 11 14 15 15 15 13 13 11 7 7 7 6 6 5 4 3 3 4 4 6 5 5 4 4 4 3 4 5 6 5 7 7 6 8 7
2 2 1 2 2 2 2 5 4 5 1 3 2 3 12 16 17 16 14 13 12 11 10 8 7 6 5 4 3 4 3 3 3 4 4 3 3 3 4 4 4 4 5 6 6 5 7 7 7
2 3 2 2 1 1 3 5 6 9 6 4 1 4 10 13 14 13 12 11 11 12 10 10 8 6 5 5 4 3 4 3 3 3 3 3 3 3 3 3 4 4 5 5 6 6 7 8 8
3 3 3 2 2 1 4 2 3 1 1 1 6 6 7 10 13 11 12 13 13 12 11 10 9 7 6 5 5 3 3 4 2 2 3 4 3 3 3 4 4 4 5 5 6 7 7 7 8
4 3 2 5 5 2 4 5 7 2 3 5 3 6 6 8 10 14 13 14 13 11 11 11 10 8 7 6 5 3 3 2 2 2 2 3 3 3 4 3 4 4 5 7 6 7 7 8 7
1 2 3 4 9 2 5 1 1 1 2 2 2 3 5 8 11 12 12 12 13 12 13 11 9 9 8 6 5 3 3 3 3 2 1 1 2 3 3 3 3 4 4 5 6 7 7 8 8
3 2 1 3 5 5 3 5 3 0 5 9 8 8 7 7 8 11 13 13 13 13 13 12 11 10 9 6 4 4 4 3 2 2 2 1 0 2 3 3 3 5 4 5 6 6 8 8 9
2 2 1 2 6 5 7 14 13 8 10 13 12 10 9 9 10 8 10 12 12 12 12 11 9 10 8 5 4 3 3 3 3 3 3 2 1 1 3 3 4 4 5 5 6 8 7 8 9
3 1 2 2 5 8 4 15 18 12 8 6 6 6 6 8 6 8 7 9 11 10 11 11 11 11 8 6 5 4 5 4 4 4 4 3 2 1 2 3 4 4 5 6 7 8 10 8 8
4 1 3 2 4 5 7 19 8 5 5 6 7 8 9 10 9 8 4 5 9 10 10 10 10 11 9 6 3 2 2 2 2 3 4 3 3 1 3 4 4 5 5 6 7 7 7 6 6
5 3 2 3 9 1 14 5 5 4 5 6 6 6 9 11 11 10 7 1 5 8 10 10 11 11 10 8 4 3 2 1 3 4 4 3 3 3 3 4 4 5 5 5 6 6 7 7 7
2 1 1 3 5 3 8 3 4 5 8 13 13 13 11 12 12 10 9 5 1 4 5 7 8 9 8 8 5 6 5 6 3 3 2 3 4 4 4 4 5 5 5 6 5 5 6 6 7
4 2 3 2 2 2 5 2 3 1 8 11 15 14 14 11 11 12 10 8 7 4 2 3 5 6 6 6 5 5 7 6 4 4 5 5 4 5 5 5 5 5 5 5 6 7 7 6 6
6 2 3 2 1 2 3 5 5 5 6 8 11 14 13 12 12 11 9 8 7 5 4 3 0 2 3 5 6 8 9 8 6 6 5 5 4 4 5 5 5 5 5 6 6 7 8 7 8
2 2 1 1 0 1 1 4 3 7 9 5 11 15 14 13 13 12 11 9 7 6 5 4 4 4 4 5 6 7 9 9 10 8 6 6 5 4 5 5 5 5 5 6 7 8 9 9 8
2 1 1 3 2 2 1 5 7 4 6 10 11 12 13 16 14 14 14 11 10 9 7 5 5 6 6 7 8 8 9 7 7 8 6 5 5 5 5 5 5 6 6 7 7 7 7 9 8
3 1 2 7 2 2 1 4 3 9 2 9 12 15 15 14 13 13 13 12 12 11 11 9 9 10 10 10 9 10 9 10 9 9 8 6 6 5 6 6 6 6 6 7 8 7 9 9 10
3 5 3 1 3 5 3 6 5 11 8 4 12 12 11 12 12 12 11 11 11 10 10 10 10 11 12 11 10 9 10 10 10 9 11 10 8 7 7 7 6 6 6 7 7 8 9 10 8
4 2 3 1 2 3 3 4 4 9 10 6 6 6 6 5 8 8 8 9 9 10 11 11 11 11 11 11 11 11 10 10 10 11 11 11 9 8 8 8 7 7 7 7 7 8 10 11 11
3 2 5 4 5 1 3 8 2 6 8 5 4 4 6 5 5 5 7 9 11 12 12 12 12 12 12 12 11 12 12 11 12 13 12 11 11 9 9 8 8 8 8 7 8 9 9 11 12
Wind_Direction
319 316 305 266 239 267 254 210 321 216 205 67 95 272 320 7 313 16 124 79 101 85 99 91 98 98 98 96 97 97 98 96 90 88 86 82 78 71 68 58 48 48 45 43 43 38 40 31 28
325 287 219 172 237 233 223 219 224 239 70 123 129 177 209 91 58 121 138 104 104 98 99 97 98 103 99 92 96 98 98 93 91 88 84 80 76 73 67 65 61 54 53 51 47 43 42 34 23
275 299 214 217 241 237 256 200 269 135 135 180 159 349 16 83 75 137 115 126 119 104 99 100 99 102 101 100 91 89 89 90 87 84 81 78 75 73 68 62 60 59 53 49 48 45 40 33 30
256 172 133 232 224 250 241 151 132 163 192 234 315 144 112 20 147 140 133 137 124 111 104 102 105 103 102 101 100 95 90 87 83 80 77 75 73 70 68 64 57 52 53 49 43 38 36 33 29
337 222 200 234 239 249 231 291 221 202 174 171 180 127 98 102 112 142 142 141 130 119 121 108 97 101 102 99 97 93 88 85 84 80 78 75 73 70 68 63 57 51 46 46 44 39 32 27 24
158 261 205 224 226 230 241 264 199 212 175 145 191 153 114 107 156 150 145 135 131 120 109 107 77 86 96 96 94 91 87 84 82 80 77 75 73 68 66 62 58 54 47 39 39 38 33 26 21
198 210 219 191 253 241 197 165 213 198 182 167 78 185 108 166 157 152 144 136 133 126 121 114 109 93 89 91 92 88 86 83 80 79 78 74 71 67 60 58 52 52 49 40 35 34 30 25 22
233 238 174 206 218 236 133 179 319 231 169 96 288 198 153 168 158 150 149 141 133 127 127 121 120 115 114 100 86 89 86 84 81 79 79 79 76 66 59 54 49 45 43 41 33 27 22 18 19
254 219 208 201 190 105 127 209 125 355 181 201 175 350 43 144 151 155 157 158 151 145 140 136 130 122 116 109 97 93 91 88 87 83 69 71 64 61 61 53 48 45 40 35 30 21 15 2 9
232 235 205 25 27 30 172 264 210 242 190 203 194 119 126 154 167 173 179 177 178 169 160 152 146 138 131 122 114 102 97 81 79 75 70 64 62 59 62 62 44 41 24 25 19 13 2 0 355
141 263 118 107 38 334 314 242 311 243 226 228 227 175 161 171 184 189 192 189 184 175 166 170 157 152 147 130 125 114 101 100 85 76 76 73 69 48 38 30 19 9 15 11 3 5 5 354 348
182 77 13 105 38 330 319 316 258 246 26 52 24 151 169 187 194 197 196 191 184 179 178 169 169 160 139 126 122 117 118 114 104 87 75 77 63 50 27 23 10 5 5 357 359 353 343 339 334
172 143 107 92 61 41 298 269 297 268 253 240 285 192 196 202 206 204 204 196 188 187 181 180 171 166 151 147 131 136 129 119 105 101 74 50 52 43 18 19 6 359 355 355 348 344 336 330 329
87 120 105 41 25 35 307 254 314 151 18 230 225 230 223 220 211 203 204 203 198 193 188 178 182 173 163 155 147 138 139 126 122 105 81 70 40 27 12 7 2 354 355 347 339 335 329 322 319
124 149 134 39 356 2 328 234 228 269 264 280 241 234 233 226 216 219 214 213 204 201 190 185 181 175 173 165 158 155 152 152 146 126 111 72 38 25 2 356 350 352 343 330 331 326 321 314 314
114 218 203 56 1 32 312 235 126 76 276 270 243 231 247 244 231 228 223 218 208 200 195 184 181 178 177 171 163 158 162 173 158 157 147 81 44 2 344 337 345 345 327 327 331 329 322 317 317
44 167 187 148 37 319 332 293 116 149 302 288 270 274 268 263 245 234 223 216 208 204 195 188 185 180 176 168 163 168 170 185 177 192 200 171 308 343 324 334 340 331 327 330 332 328 324 317 316
143 139 155 330 14 329 291 273 285 299 294 294 296 298 295 284 279 274 235 219 207 203 198 190 184 181 170 159 162 172 194 203 206 212 215 215 269 319 319 323 330 331 327 332 334 330 326 314 315
86 83 330 67 24 319 320 296 293 324 306 327 11 24 354 328 322 306 266 222 206 197 191 187 182 180 173 175 184 213 221 204 211 211 207 222 238 274 308 317 321 331 327 331 332 329 324 324 332
53 63 19 291 18 317 334 295 341 23 16 357 353 4 359 347 352 357 329 203 198 189 191 187 189 183 189 192 198 218 189 199 222 201 212 222 223 258 294 311 318 323 318 324 332 335 326 318 345
52 55 31 316 325 87 321 263 40 47 39 33 32 10 13 7 356 2 10 204 180 187 184 186 188 188 191 191 159 150 151 204 224 217 220 212 237 263 278 296 305 311 311 314 319 323 323 318 322
142 45 17 354 345 327 358 297 61 17 71 50 31 24 13 12 14 17 18 34 42 189 187 188 184 185 189 185 201 221 245 259 261 253 220 223 241 253 270 283 290 294 293 290 300 302 310 307 312
92 63 62 61 83 276 25 248 86 12 19 23 26 18 13 14 18 20 23 27 33 39 93 171 177 178 178 190 225 238 251 262 267 244 244 239 240 243 252 267 283 283 284 286 291 296 302 300 296
127 107 78 108 150 165 19 340 71 28 343 338 7 14 17 16 19 24 27 26 40 49 46 31 240 195 194 214 229 244 256 259 252 242 243 244 244 243 238 254 272 281 285 285 293 292 290 293 291
161 207 300 207 83 36 23 266 11 353 5 17 44 47 45 37 27 19 17 14 11 6 2 357 331 280 266 265 263 258 259 258 257 253 245 248 251 248 251 268 275 284 292 292 289 287 288 291 286
50 293 164 274 258 345 167 227 147 80 77 72 68 51 32 33 29 26 19 11 3 351 333 298 269 274 264 259 260 256 250 246 242 241 239 244 247 255 260 267 272 279 288 289 284 286 284 283 275
151 167 60 102 59 253 297 258 324 153 121 67 49 41 30 21 20 19 16 15 8 360 351 324 300 283 276 274 269 255 244 238 238 237 238 238 239 244 247 249 263 270 281 284 285 282 278 278 278
310 123 132 87 203 244 208 282 207 197 170 45 36 24 12 1 7 15 15 11 9 6 356 350 330 301 291 284 272 264 253 240 237 230 224 225 228 230 240 245 251 261 267 269 275 281 284 285 284
153 187 58 343 294 253 260 232 206 170 127 90 45 10 330 320 5 3 3 4 5 5 3 355 351 333 315 301 284 272 262 249 239 237 234 228 223 218 229 238 244 250 257 264 271 274 277 276 279
295 262 206 217 190 231 326 262 66 121 127 78 48 6 338 337 314 320 345 349 355 355 351 345 343 335 331 322 303 285 269 252 241 237 233 229 227 217 224 233 240 245 251 258 265 273 275 275 274